Location: Bydgoszcz
(53.1222°N, 17.9945°E)
Time: 15:12:25
(UTC+02:00)

N. Korean satellite - Visible Passes

Search period start: 21 October 2019 00:00
Search period end: 30 October 2019 23:00
Orbit: 455 x 508 km, 97.2° (Epoch: 20 October)

Date Brightness Start Highest point End Pass type
(mag) Time Alt. Az. Time Alt. Az. Time Alt. Az.
21 Oct 8.5 06:21:23 10° NNE 06:24:44 34° E 06:28:05 10° SSE visible
21 Oct 9.4 18:36:42 10° SSW 18:39:30 23° W 18:42:20 10° NW visible
22 Oct 9.7 05:56:32 10° NE 05:59:15 20° E 06:01:59 10° SE visible
22 Oct 8.1 18:10:45 10° S 18:14:02 41° W 18:17:23 10° NNW visible
23 Oct 10.4 05:32:29 10° ENE 05:33:41 11° E 05:34:54 10° ESE visible
24 Oct 7.5 06:38:41 10° NNE 06:42:15 54° E 06:45:52 10° S visible
24 Oct 10.0 18:54:58 10° SW 18:57:06 15° W 18:59:15 10° NW visible
25 Oct 8.9 06:13:36 10° NNE 06:16:50 29° E 06:20:06 10° SSE visible
25 Oct 9.0 18:28:34 10° SSW 18:31:34 27° W 18:34:37 10° NW visible
26 Oct 9.9 05:48:52 10° NE 05:51:20 17° E 05:53:48 10° SE visible
26 Oct 7.6 18:02:44 10° S 18:06:07 51° W 18:09:34 10° NNW visible
27 Oct 6.7 05:56:03 10° NNE 05:59:44 85° ESE 06:03:26 10° SSW visible
27 Oct 10.5 18:14:13 10° W 18:14:44 10° W 18:15:15 10° WNW visible
28 Oct 8.0 05:30:49 10° NNE 05:34:21 45° E 05:37:55 10° S visible
28 Oct 9.7 17:46:37 10° SW 17:49:07 18° W 17:51:40 10° NW visible
29 Oct 9.2 05:05:49 10° NE 05:08:54 25° E 05:12:01 10° SSE visible
29 Oct 8.6 17:20:26 10° SSW 17:23:36 33° W 17:26:51 10° NNW visible
30 Oct 10.1 04:41:15 10° NE 04:43:22 15° E 04:45:29 10° SE visible
30 Oct 7.1 16:54:43 10° S 16:58:11 63° W 17:01:44 10° NNW visible
